Orlando International, FL

11:49 AM EDT on June 26, 2017 (GMT -0400)
Orlando International

Weather History for KMCO - November, 2013

Change the Weather History Date:

Monday, November 4, 2013

  Actual Average Record
Temperature  
Mean Temperature 71 °F 71 °F  
Max Temperature 80 °F 81 °F 90 °F (1934)
Min Temperature 62 °F 61 °F 40 °F (1966)
Degree Days  
Heating Degree Days 0 1  
Month to date heating degree days 0 4  
Since 1 July heating degree days 0 9  
Cooling Degree Days 6 7  
Month to date cooling degree days 26 28  
Year to date cooling degree days 3386 3235  
Growing Degree Days 20 (Base 50)    
Moisture  
Dew Point 59 °F    
Average Humidity 68    
Maximum Humidity 87    
Minimum Humidity 48    
Precipitation  
Precipitation T in 0.08 in 2.00 in (1981)
Month to date precipitation 0.27 0.31  
Year to date precipitation 41.79 46.29  
Sea Level Pressure  
Sea Level Pressure 30.15 in    
Wind  
Wind Speed 11 mph (NNE)    
Max Wind Speed 30 mph    
Max Gust Speed 38 mph    
Visibility 10 miles    
Events      
T = Trace of Precipitation, MM = Missing Value Source: NWS Daily Summary

Daily Weather History Graph

Daily Weather History Graph

Search for Another Location

Airport or City:

Trip Planner

Search our weather history database for the weather conditions in past years. The results will help you decide how hot, cold, wet, or windy it might be!

Date:

Astronomy

Nov. 04, 2013 Rise Set
Actual Time 6:39 AM EST 5:37 PM EST
Civil Twilight 6:14 AM EST 6:02 PM EST
Nautical Twilight 5:46 AM EST 6:30 PM EST
Astronomical Twilight 5:19 AM EST 6:58 PM EST
Moon 7:43 AM EST (11/4) 6:47 PM EST (11/4)
Length of Visible Light 11h 47m
Length of Day
10h 58m
New Moon, 2% of the Moon is Illuminated
Nov 4
New Moon
Nov 10
First Quarter
Nov 17
Full
Nov 25
Last Quarter
Dec 2
New

Hourly Weather History & Observations

Time (EST) Temp. Dew Point Humidity Pressure Visibility Wind Dir Wind Speed Gust Speed Precip Events Conditions
12:53 AM 64.9 °F 55.0 °F 70% 30.12 in 10.0 mi North 6.9 mph - N/A   Overcast
1:53 AM 64.9 °F 57.0 °F 75% 30.12 in 10.0 mi North 5.8 mph - N/A   Overcast
2:53 AM 64.9 °F 55.0 °F 70% 30.11 in 10.0 mi NNW 9.2 mph - N/A   Overcast
3:53 AM 64.9 °F 55.9 °F 73% 30.11 in 10.0 mi North 6.9 mph - N/A   Overcast
4:53 AM 64.9 °F 55.9 °F 73% 30.12 in 10.0 mi North 6.9 mph - N/A   Mostly Cloudy
5:53 AM 64.9 °F 55.0 °F 70% 30.14 in 10.0 mi North 9.2 mph - N/A   Mostly Cloudy
6:53 AM 66.9 °F 55.0 °F 66% 30.15 in 10.0 mi North 11.5 mph - N/A   Mostly Cloudy
7:53 AM 66.9 °F 57.0 °F 70% 30.17 in 10.0 mi NNE 6.9 mph - N/A   Overcast
8:53 AM 71.1 °F 57.9 °F 63% 30.17 in 10.0 mi NNE 11.5 mph - N/A   Overcast
9:53 AM 73.9 °F 57.0 °F 55% 30.17 in 10.0 mi NE 18.4 mph 23.0 mph N/A   Overcast
10:53 AM 77.0 °F 57.9 °F 52% 30.17 in 10.0 mi ENE 17.3 mph 23.0 mph N/A   Mostly Cloudy
11:53 AM 75.9 °F 55.9 °F 50% 30.16 in 10.0 mi ENE 19.6 mph 31.1 mph N/A   Mostly Cloudy
12:53 PM 78.1 °F 57.0 °F 48% 30.14 in 10.0 mi ENE 18.4 mph 26.5 mph N/A   Mostly Cloudy
1:53 PM 79.0 °F 57.9 °F 48% 30.13 in 10.0 mi NE 20.7 mph 31.1 mph N/A   Mostly Cloudy
2:53 PM 73.0 °F 61.0 °F 66% 30.14 in 10.0 mi NNE 13.8 mph - N/A   Overcast
3:53 PM 73.9 °F 61.0 °F 64% 30.15 in 10.0 mi NE 13.8 mph - 0.00 in   Overcast
4:53 PM 73.9 °F 62.1 °F 66% 30.15 in 10.0 mi NNE 11.5 mph - N/A   Overcast
5:53 PM 72.0 °F 62.1 °F 71% 30.15 in 10.0 mi NNE 10.4 mph - N/A   Mostly Cloudy
6:53 PM 71.1 °F 63.0 °F 75% 30.16 in 10.0 mi NNE 6.9 mph - N/A   Mostly Cloudy
7:53 PM 68.0 °F 63.0 °F 84% 30.17 in 10.0 mi NNE 8.1 mph - N/A   Partly Cloudy
8:53 PM 70.0 °F 63.0 °F 78% 30.18 in 10.0 mi NNE 13.8 mph - N/A   Mostly Cloudy
9:53 PM 71.1 °F 63.0 °F 75% 30.19 in 10.0 mi NNE 9.2 mph - N/A   Mostly Cloudy
10:53 PM 68.0 °F 64.0 °F 87% 30.18 in 10.0 mi NNE 9.2 mph - 0.00 in   Scattered Clouds
11:53 PM 66.9 °F 64.0 °F 90% 30.16 in 10.0 mi NNE 5.8 mph - N/A   Scattered Clouds